[Date Prev][Date Next][Thread Prev][Thread Next] - [Date Index][Thread Index][Author Index]

2 Line ISS Keps 5-10



ISS
1 25544U 98067A   02130.21193448  .00057927  00000-0  72060-3 0  4227
2 25544  51.6400 243.8565 0008424  47.2582  25.8365 15.59347996198103


----
Via the sarex mailing list at AMSAT.ORG courtesy of AMSAT-NA.
To unsubscribe, send "unsubscribe sarex" to Majordomo@amsat.org



AMSAT Top AMSAT Home